Location: Palomar Mountain Lodge
(33.3110°N, 116.8495°W)
Time: 17:19:02
(UTC-07:00)

SL-8 Rocket - Pass Details

Date: 19 May 2017
Orbit: 957 x 991 km, 82.9° (Epoch: 22 September)

Event Time Altitude Azimuth Distance (km) Brightness Sun altitude
Rises 22:48:21 0° 359° (N) 3,664 7.9 -30.0°
Reaches altitude 10° 22:50:55 10° 3° (N) 2,719 7.0 -30.2°
Enters shadow 22:56:12 53° 51° (NE) 1,190 4.4 -30.8°
